Weather History for Hartsville, SC

Change the Weather History Date:

Saturday, April 27, 2013

  Actual Average (KFLO) Record (KFLO)
Temperature  
Mean Temperature 65 °F 66 °F  
Max Temperature 75 °F 79 °F 96 °F (1981)
Min Temperature 55 °F 54 °F 38 °F (1972)
Degree Days  
Heating Degree Days 0 2  
Month to date heating degree days 117  
Since 1 July heating degree days 2493  
Cooling Degree Days 0 3  
Month to date cooling degree days 59  
Year to date cooling degree days 83  
Growing Degree Days 15 (Base 50)    
Moisture  
Dew Point 50 °F    
Average Humidity 70    
Maximum Humidity 100    
Minimum Humidity 31    
Precipitation  
Precipitation 0.00 in 0.09 in 1.87 in (1950)
Month to date precipitation 2.37  
Year to date precipitation 11.85  
Sea Level Pressure  
Sea Level Pressure 30.33 in    
Wind  
Wind Speed 1 mph (NNW)    
Max Wind Speed 8 mph    
Max Gust Speed -    
Visibility 9 miles    
Events      
T = Trace of Precipitation, MM = Missing Value Source: NWS Daily Summary

Daily Weather History Graph

Daily Weather History Graph

Search for Another Location

Airport:

Trip Planner

Search our weather history database for the weather conditions in past years. The results will help you decide how hot, cold, wet, or windy it might be!

Date:

Astronomy

Apr. 27, 2013 Rise Set
Actual Time 6:34 AM EDT 8:01 PM EDT
Civil Twilight 6:08 AM EDT 8:28 PM EDT
Nautical Twilight 5:36 AM EDT 9:00 PM EDT
Astronomical Twilight 5:03 AM EDT 9:33 PM EDT
Moon 10:24 PM EDT (4/27) 7:55 AM EDT (4/27)
Length of Visible Light 14h 20m
Length of Day
13h 27m
Waning Gibbous, 95% of the Moon is Illuminated
Apr 27
Waning Gibbous
May 2
Last Quarter
May 9
New
May 18
First Quarter
May 25
Full

Hourly Weather History & Observations

Time (EDT) Temp. Dew Point Humidity Pressure Visibility Wind Dir Wind Speed Gust Speed Precip Events Conditions
12:15 AM 57.2 °F 41.0 °F 55% 30.34 in 10.0 mi Calm Calm - N/A   Clear
12:35 AM 57.2 °F 41.0 °F 55% 30.36 in 10.0 mi Calm Calm - N/A   Clear
12:55 AM 59.0 °F 41.0 °F 51% 30.36 in 10.0 mi Calm Calm - N/A   Clear
1:15 AM 59.0 °F 41.0 °F 51% 30.36 in 10.0 mi Calm Calm - N/A   Clear
1:35 AM 59.0 °F 42.8 °F 55% 30.36 in 10.0 mi Calm Calm - N/A   Clear
1:55 AM 57.2 °F 42.8 °F 59% 30.36 in 10.0 mi Calm Calm - N/A   Clear
2:15 AM 57.2 °F 42.8 °F 59% 30.36 in 10.0 mi Calm Calm - N/A   Clear
2:35 AM 55.4 °F 44.6 °F 67% 30.36 in 10.0 mi Calm Calm - N/A   Clear
2:55 AM 55.4 °F 44.6 °F 67% 30.36 in 10.0 mi Calm Calm - N/A   Mostly Cloudy
3:15 AM 55.4 °F 44.6 °F 67% 30.35 in 10.0 mi Calm Calm - N/A   Overcast
3:35 AM 55.4 °F 44.6 °F 67% 30.35 in 10.0 mi Calm Calm - N/A   Mostly Cloudy
3:55 AM 55.4 °F 44.6 °F 67% 30.35 in 10.0 mi Calm Calm - N/A   Scattered Clouds
4:15 AM 55.4 °F 44.6 °F 67% 30.35 in 10.0 mi Calm Calm - N/A   Clear
4:55 AM 55.4 °F 44.6 °F 67% 30.35 in 10.0 mi Calm Calm - N/A   Overcast
5:15 AM 55.4 °F 46.4 °F 72% 30.35 in 10.0 mi Calm Calm - N/A   Mostly Cloudy
5:35 AM 55.4 °F 46.4 °F 72% 30.34 in 10.0 mi Calm Calm - N/A   Mostly Cloudy
5:55 AM 55.4 °F 44.6 °F 67% 30.34 in 10.0 mi Calm Calm - N/A   Scattered Clouds
6:15 AM 55.4 °F 46.4 °F 72% 30.35 in 10.0 mi Calm Calm - N/A   Mostly Cloudy
7:35 AM 55.4 °F 48.2 °F 77% 30.37 in 10.0 mi Calm Calm - N/A   Overcast
7:55 AM 55.4 °F 48.2 °F 77% 30.37 in 10.0 mi Calm Calm - N/A   Mostly Cloudy
8:15 AM 57.2 °F 48.2 °F 72% 30.37 in 10.0 mi Calm Calm - N/A   Mostly Cloudy
8:35 AM 59.0 °F 50.0 °F 72% 30.38 in 10.0 mi Calm Calm - N/A   Overcast
8:55 AM 59.0 °F 50.0 °F 72% 30.38 in 10.0 mi Calm Calm - N/A   Overcast
9:15 AM 60.8 °F 50.0 °F 68% 30.38 in 10.0 mi Calm Calm - N/A   Overcast
9:35 AM 62.6 °F 51.8 °F 68% 30.37 in 10.0 mi Calm Calm - N/A   Overcast
9:55 AM 62.6 °F 51.8 °F 68% 30.36 in 10.0 mi Calm Calm - N/A   Overcast
10:15 AM 64.4 °F 50.0 °F 59% 30.36 in 10.0 mi East 3.5 mph - N/A   Mostly Cloudy
10:35 AM 64.4 °F 51.8 °F 64% 30.36 in 10.0 mi Calm Calm - N/A   Scattered Clouds
10:55 AM 64.4 °F 50.0 °F 59% 30.36 in 10.0 mi Calm Calm - N/A   Clear
11:15 AM 66.2 °F 50.0 °F 56% 30.37 in 10.0 mi Calm Calm - N/A   Scattered Clouds
11:35 AM 68.0 °F 48.2 °F 49% 30.37 in 10.0 mi Calm Calm - N/A   Scattered Clouds
11:55 AM 69.8 °F 46.4 °F 43% 30.35 in 10.0 mi Calm Calm - N/A   Clear
12:15 PM 71.6 °F 46.4 °F 41% 30.35 in 10.0 mi Calm Calm - N/A   Clear
12:35 PM 73.4 °F 42.8 °F 33% 30.34 in 10.0 mi South 5.8 mph - N/A   Clear
12:55 PM 73.4 °F 42.8 °F 33% 30.33 in 10.0 mi Calm Calm - N/A   Clear
1:15 PM 73.4 °F 42.8 °F 33% 30.33 in 10.0 mi SE 8.1 mph - N/A   Clear
1:35 PM 75.2 °F 42.8 °F 31% 30.32 in 10.0 mi SSE 4.6 mph - N/A   Clear
1:55 PM 75.2 °F 44.6 °F 34% 30.32 in 10.0 mi South 5.8 mph - N/A   Mostly Cloudy
2:15 PM 73.4 °F 42.8 °F 33% 30.32 in 10.0 mi Calm Calm - N/A   Overcast
2:35 PM 73.4 °F 42.8 °F 33% 30.32 in 10.0 mi Calm Calm - N/A   Mostly Cloudy
2:55 PM 73.4 °F 41.0 °F 31% 30.32 in 10.0 mi Calm Calm - N/A   Overcast
3:15 PM 71.6 °F 42.8 °F 35% 30.31 in 10.0 mi Calm Calm - N/A   Mostly Cloudy
3:35 PM 71.6 °F 44.6 °F 38% 30.32 in 10.0 mi Calm Calm - N/A   Overcast
3:55 PM 71.6 °F 46.4 °F 41% 30.30 in 10.0 mi Calm Calm - N/A   Overcast
4:15 PM 68.0 °F 53.6 °F 60% 30.31 in 10.0 mi Calm Calm - N/A   Overcast
4:35 PM 64.4 °F 55.4 °F 73% 30.30 in 10.0 mi Calm Calm - N/A   Overcast
4:55 PM 62.6 °F 59.0 °F 88% 30.32 in 7.0 mi West 4.6 mph - N/A   Overcast
5:15 PM 60.8 °F 55.4 °F 82% 30.34 in 7.0 mi NNW 5.8 mph - N/A   Overcast
5:35 PM 60.8 °F 57.2 °F 88% 30.33 in 10.0 mi Calm Calm - N/A   Overcast
5:55 PM 60.8 °F 59.0 °F 94% 30.33 in 7.0 mi NNW 3.5 mph - N/A   Overcast
6:15 PM 60.8 °F 59.0 °F 94% 30.33 in 7.0 mi NNW 4.6 mph - N/A   Mostly Cloudy
6:35 PM 59.0 °F 59.0 °F 100% 30.32 in 10.0 mi NNW 4.6 mph - N/A   Mostly Cloudy
6:55 PM 59.0 °F 59.0 °F 100% 30.32 in 10.0 mi Calm Calm - N/A   Scattered Clouds
7:15 PM 59.0 °F 59.0 °F 100% 30.31 in 10.0 mi North 4.6 mph - N/A   Mostly Cloudy
7:35 PM 59.0 °F 59.0 °F 100% 30.29 in 10.0 mi Calm Calm - N/A   Mostly Cloudy
7:55 PM 59.0 °F 59.0 °F 100% 30.29 in 7.0 mi Calm Calm - N/A   Scattered Clouds
8:15 PM 59.0 °F 59.0 °F 100% 30.29 in 7.0 mi Calm Calm - N/A   Scattered Clouds
8:35 PM 59.0 °F 59.0 °F 100% 30.29 in 7.0 mi Calm Calm - N/A   Mostly Cloudy
8:55 PM 59.0 °F 59.0 °F 100% 30.29 in 7.0 mi Calm Calm - N/A   Mostly Cloudy
9:15 PM 59.0 °F 59.0 °F 100% 30.30 in 7.0 mi Calm Calm - N/A   Overcast
9:35 PM 59.0 °F 59.0 °F 100% 30.30 in 5.0 mi Calm Calm - N/A   Overcast
9:55 PM 59.0 °F 59.0 °F 100% 30.30 in 7.0 mi Calm Calm - N/A   Overcast
10:15 PM 59.0 °F 59.0 °F 100% 30.29 in 5.0 mi Calm Calm - N/A   Mostly Cloudy
10:35 PM 59.0 °F 59.0 °F 100% 30.29 in 4.0 mi Calm Calm - N/A   Mostly Cloudy
10:55 PM 59.0 °F 59.0 °F 100% 30.29 in 3.0 mi Calm Calm - N/A   Overcast
11:15 PM 59.0 °F 59.0 °F 100% 30.28 in 3.0 mi Calm Calm - N/A   Overcast
11:35 PM 59.0 °F 59.0 °F 100% 30.28 in 3.0 mi Calm Calm - N/A   Overcast
11:55 PM 59.0 °F 59.0 °F 100% 30.27 in 3.0 mi Calm Calm - N/A   Overcast